Year,Month,Day,Hour,Minute,Value (Times are PST for temperature in C)
2017,08,09,00,00,18.70
2017,08,09,00,01,18.70
2017,08,09,00,02,18.60
2017,08,09,00,03,18.50
2017,08,09,00,04,18.50
2017,08,09,00,05,18.50
2017,08,09,00,06,18.40
2017,08,09,00,07,18.40
2017,08,09,00,08,18.40
2017,08,09,00,09,18.30
2017,08,09,00,10,18.30
2017,08,09,00,11,18.30
2017,08,09,00,12,18.30
2017,08,09,00,13,18.20
2017,08,09,00,14,18.20
2017,08,09,00,15,18.20
2017,08,09,00,16,18.20
2017,08,09,00,17,18.10
2017,08,09,00,18,18.10
2017,08,09,00,19,18.10
2017,08,09,00,20,18.10
2017,08,09,00,21,18.00
2017,08,09,00,22,18.00
2017,08,09,00,23,18.00
2017,08,09,00,24,17.90
2017,08,09,00,25,17.90
2017,08,09,00,26,17.90
2017,08,09,00,27,17.90
2017,08,09,00,28,17.80
2017,08,09,00,29,17.80
2017,08,09,00,30,17.80
2017,08,09,00,31,17.80
2017,08,09,00,32,17.80
2017,08,09,00,33,17.80
2017,08,09,00,34,17.70
2017,08,09,00,35,17.70
2017,08,09,00,36,17.70
2017,08,09,00,37,17.70
2017,08,09,00,38,17.70
2017,08,09,00,39,17.70
2017,08,09,00,40,17.70
2017,08,09,00,41,17.60
2017,08,09,00,42,17.60
2017,08,09,00,43,17.60
2017,08,09,00,44,17.60
2017,08,09,00,45,17.60
2017,08,09,00,46,17.50
2017,08,09,00,47,17.50
2017,08,09,00,48,17.50
2017,08,09,00,49,17.40
2017,08,09,00,50,17.40
2017,08,09,00,51,17.40
2017,08,09,00,52,17.40
2017,08,09,00,53,17.30
2017,08,09,00,54,17.30
2017,08,09,00,55,17.30
2017,08,09,00,56,17.30
2017,08,09,00,57,17.30
2017,08,09,00,58,17.20
2017,08,09,00,59,17.20
2017,08,09,01,00,17.20
2017,08,09,01,01,17.20
2017,08,09,01,02,17.20
2017,08,09,01,03,17.10
2017,08,09,01,04,17.10
2017,08,09,01,05,17.10
2017,08,09,01,06,17.10
2017,08,09,01,07,17.10
2017,08,09,01,08,17.10
2017,08,09,01,09,17.00
2017,08,09,01,10,17.10
2017,08,09,01,11,17.00
2017,08,09,01,12,17.10
2017,08,09,01,13,17.10
2017,08,09,01,14,17.00
2017,08,09,01,15,17.00
2017,08,09,01,16,17.00
2017,08,09,01,17,17.00
2017,08,09,01,18,17.00
2017,08,09,01,19,16.90
2017,08,09,01,20,16.90
2017,08,09,01,21,16.90
2017,08,09,01,22,16.90
2017,08,09,01,23,16.90
2017,08,09,01,24,16.90
2017,08,09,01,25,16.80
2017,08,09,01,26,16.80
2017,08,09,01,27,16.80
2017,08,09,01,28,16.80
2017,08,09,01,29,16.80
2017,08,09,01,30,16.70
2017,08,09,01,31,16.70
2017,08,09,01,32,16.70
2017,08,09,01,33,16.70
2017,08,09,01,34,16.70
2017,08,09,01,35,16.70
2017,08,09,01,36,16.70
2017,08,09,01,37,16.60
2017,08,09,01,38,16.60
2017,08,09,01,39,16.60
2017,08,09,01,40,16.60
2017,08,09,01,41,16.60
2017,08,09,01,42,16.60
2017,08,09,01,43,16.60
2017,08,09,01,44,16.50
2017,08,09,01,45,16.50
2017,08,09,01,46,16.50
2017,08,09,01,47,16.40
2017,08,09,01,48,16.40
2017,08,09,01,49,16.40
2017,08,09,01,50,16.40
2017,08,09,01,51,16.40
2017,08,09,01,52,16.30
2017,08,09,01,53,16.30
2017,08,09,01,54,16.30
2017,08,09,01,55,16.30
2017,08,09,01,56,16.30
2017,08,09,01,57,16.30
2017,08,09,01,58,16.30
2017,08,09,01,59,16.20
2017,08,09,02,00,16.20
2017,08,09,02,01,16.20
2017,08,09,02,02,16.20
2017,08,09,02,03,16.20
2017,08,09,02,04,16.20
2017,08,09,02,05,16.20
2017,08,09,02,06,16.10
2017,08,09,02,07,16.10
2017,08,09,02,08,16.10
2017,08,09,02,09,16.10
2017,08,09,02,10,16.10
2017,08,09,02,11,16.10
2017,08,09,02,12,16.10
2017,08,09,02,13,16.10
2017,08,09,02,14,16.00
2017,08,09,02,15,16.00
2017,08,09,02,16,16.00
2017,08,09,02,17,15.90
2017,08,09,02,18,15.90
2017,08,09,02,19,15.90
2017,08,09,02,20,15.90
2017,08,09,02,21,15.90
2017,08,09,02,22,15.80
2017,08,09,02,23,15.80
2017,08,09,02,24,15.80
2017,08,09,02,25,15.80
2017,08,09,02,26,15.80
2017,08,09,02,27,15.80
2017,08,09,02,28,15.80
2017,08,09,02,29,15.70
2017,08,09,02,30,15.70
2017,08,09,02,31,15.70
2017,08,09,02,32,15.70
2017,08,09,02,33,15.70
2017,08,09,02,34,15.70
2017,08,09,02,35,15.70
2017,08,09,02,36,15.70
2017,08,09,02,37,15.70
2017,08,09,02,38,15.70
2017,08,09,02,39,15.70
2017,08,09,02,40,15.70
2017,08,09,02,41,15.60
2017,08,09,02,42,15.60
2017,08,09,02,43,15.60
2017,08,09,02,44,15.60
2017,08,09,02,45,15.60
2017,08,09,02,46,15.50
2017,08,09,02,47,15.50
2017,08,09,02,48,15.50
2017,08,09,02,49,15.40
2017,08,09,02,50,15.40
2017,08,09,02,51,15.40
2017,08,09,02,52,15.40
2017,08,09,02,53,15.40
2017,08,09,02,54,15.40
2017,08,09,02,55,15.40
2017,08,09,02,56,15.30
2017,08,09,02,57,15.30
2017,08,09,02,58,15.30
2017,08,09,02,59,15.30
2017,08,09,03,00,15.30
2017,08,09,03,01,15.30
2017,08,09,03,02,15.30
2017,08,09,03,03,15.20
2017,08,09,03,04,15.20
2017,08,09,03,05,15.20
2017,08,09,03,06,15.20
2017,08,09,03,07,15.10
2017,08,09,03,08,15.10
2017,08,09,03,09,15.10
2017,08,09,03,10,15.00
2017,08,09,03,11,15.00
2017,08,09,03,12,15.00
2017,08,09,03,13,15.00
2017,08,09,03,14,15.00
2017,08,09,03,15,15.00
2017,08,09,03,16,15.00
2017,08,09,03,17,15.00
2017,08,09,03,18,15.00
2017,08,09,03,19,15.00
2017,08,09,03,20,15.00
2017,08,09,03,21,15.00
2017,08,09,03,22,15.00
2017,08,09,03,23,15.00
2017,08,09,03,24,15.00
2017,08,09,03,25,15.00
2017,08,09,03,26,14.90
2017,08,09,03,27,14.90
2017,08,09,03,28,14.90
2017,08,09,03,29,14.90
2017,08,09,03,30,14.80
2017,08,09,03,31,14.80
2017,08,09,03,32,14.80
2017,08,09,03,33,14.80
2017,08,09,03,34,14.80
2017,08,09,03,35,14.80
2017,08,09,03,36,14.80
2017,08,09,03,37,14.80
2017,08,09,03,38,14.80
2017,08,09,03,39,14.70
2017,08,09,03,40,14.70
2017,08,09,03,41,14.70
2017,08,09,03,42,14.70
2017,08,09,03,43,14.60
2017,08,09,03,44,14.60
2017,08,09,03,45,14.60
2017,08,09,03,46,14.60
2017,08,09,03,47,14.60
2017,08,09,03,48,14.60
2017,08,09,03,49,14.60
2017,08,09,03,50,14.60
2017,08,09,03,51,14.60
2017,08,09,03,52,14.60
2017,08,09,03,53,14.60
2017,08,09,03,54,14.60
2017,08,09,03,55,14.60
2017,08,09,03,56,14.60
2017,08,09,03,57,14.60
2017,08,09,03,58,14.60
2017,08,09,03,59,14.60
2017,08,09,04,00,14.50
2017,08,09,04,01,14.50
2017,08,09,04,02,14.50
2017,08,09,04,03,14.50
2017,08,09,04,04,14.40
2017,08,09,04,05,14.40
2017,08,09,04,06,14.40
2017,08,09,04,07,14.40
2017,08,09,04,08,14.40
2017,08,09,04,09,14.40
2017,08,09,04,10,14.40
2017,08,09,04,11,14.30
2017,08,09,04,12,14.30
2017,08,09,04,13,14.30
2017,08,09,04,14,14.30
2017,08,09,04,15,14.30
2017,08,09,04,16,14.30
2017,08,09,04,17,14.30
2017,08,09,04,18,14.20
2017,08,09,04,19,14.20
2017,08,09,04,20,14.20
2017,08,09,04,21,14.20
2017,08,09,04,22,14.20
2017,08,09,04,23,14.20
2017,08,09,04,24,14.20
2017,08,09,04,25,14.10
2017,08,09,04,26,14.10
2017,08,09,04,27,14.10
2017,08,09,04,28,14.10
2017,08,09,04,29,14.10
2017,08,09,04,30,14.10
2017,08,09,04,31,14.10
2017,08,09,04,32,14.10
2017,08,09,04,33,14.10
2017,08,09,04,34,14.10
2017,08,09,04,35,14.10
2017,08,09,04,36,14.10
2017,08,09,04,37,14.10
2017,08,09,04,38,14.10
2017,08,09,04,39,14.10
2017,08,09,04,40,14.10
2017,08,09,04,41,14.00
2017,08,09,04,42,14.00
2017,08,09,04,43,14.00
2017,08,09,04,44,14.00
2017,08,09,04,45,13.90
2017,08,09,04,46,13.90
2017,08,09,04,47,13.90
2017,08,09,04,48,13.90
2017,08,09,04,49,13.90
2017,08,09,04,50,13.90
2017,08,09,04,51,13.90
2017,08,09,04,52,13.90
2017,08,09,04,53,13.90
2017,08,09,04,54,13.90
2017,08,09,04,55,13.80
2017,08,09,04,56,13.80
2017,08,09,04,57,13.80
2017,08,09,04,58,13.80
2017,08,09,04,59,13.80
2017,08,09,05,00,13.80
2017,08,09,05,01,13.80
2017,08,09,05,02,13.80
2017,08,09,05,03,13.70
2017,08,09,05,04,13.70
2017,08,09,05,05,13.70
2017,08,09,05,06,13.70
2017,08,09,05,07,13.70
2017,08,09,05,08,13.70
2017,08,09,05,09,13.70
2017,08,09,05,10,13.70
2017,08,09,05,11,13.70
2017,08,09,05,12,13.70
2017,08,09,05,13,13.60
2017,08,09,05,14,13.60
2017,08,09,05,15,13.60
2017,08,09,05,16,13.60
2017,08,09,05,17,13.60
2017,08,09,05,18,13.60
2017,08,09,05,19,13.60
2017,08,09,05,20,13.60
2017,08,09,05,21,13.60
2017,08,09,05,22,13.60
2017,08,09,05,23,13.50
2017,08,09,05,24,13.50
2017,08,09,05,25,13.50
2017,08,09,05,26,13.50
2017,08,09,05,27,13.50
2017,08,09,05,28,13.50
2017,08,09,05,29,13.40
2017,08,09,05,30,13.40
2017,08,09,05,31,13.40
2017,08,09,05,32,13.40
2017,08,09,05,33,13.40
2017,08,09,05,34,13.40
2017,08,09,05,35,13.40
2017,08,09,05,36,13.40
2017,08,09,05,37,13.40
2017,08,09,05,38,13.40
2017,08,09,05,39,13.30
2017,08,09,05,40,13.30
2017,08,09,05,41,13.30
2017,08,09,05,42,13.30
2017,08,09,05,43,13.40
2017,08,09,05,44,13.40
2017,08,09,05,45,13.40
2017,08,09,05,46,13.40
2017,08,09,05,47,13.40
2017,08,09,05,48,13.40
2017,08,09,05,49,13.30
2017,08,09,05,50,13.30
2017,08,09,05,51,13.30
2017,08,09,05,52,13.30
2017,08,09,05,53,13.30
2017,08,09,05,54,13.30
2017,08,09,05,55,13.30
2017,08,09,05,56,13.30
2017,08,09,05,57,13.30
2017,08,09,05,58,13.30
2017,08,09,05,59,13.30
2017,08,09,06,00,13.30
2017,08,09,06,01,13.20
2017,08,09,06,02,13.20
2017,08,09,06,03,13.20
2017,08,09,06,04,13.20
2017,08,09,06,05,13.20
2017,08,09,06,06,13.20
2017,08,09,06,07,13.20
2017,08,09,06,08,13.20
2017,08,09,06,09,13.10
2017,08,09,06,10,13.10
2017,08,09,06,11,13.10
2017,08,09,06,12,13.10
2017,08,09,06,13,13.10
2017,08,09,06,14,13.10
2017,08,09,06,15,13.10
2017,08,09,06,16,13.10
2017,08,09,06,17,13.10
2017,08,09,06,18,13.10
2017,08,09,06,19,13.10
2017,08,09,06,20,13.10
2017,08,09,06,21,13.10
2017,08,09,06,22,13.10
2017,08,09,06,23,13.10
2017,08,09,06,24,13.10
2017,08,09,06,25,13.10
2017,08,09,06,26,13.10
2017,08,09,06,27,13.00
2017,08,09,06,28,13.00
2017,08,09,06,29,13.00
2017,08,09,06,30,13.00
2017,08,09,06,31,13.00
2017,08,09,06,32,13.00
2017,08,09,06,33,13.00
2017,08,09,06,34,13.00
2017,08,09,06,35,13.00
2017,08,09,06,36,12.90
2017,08,09,06,37,12.90
2017,08,09,06,38,12.90
2017,08,09,06,39,12.90
2017,08,09,06,40,12.90
2017,08,09,06,41,12.90
2017,08,09,06,42,12.90
2017,08,09,06,43,12.90
2017,08,09,06,44,12.90
2017,08,09,06,45,12.90
2017,08,09,06,46,12.90
2017,08,09,06,47,12.90
2017,08,09,06,48,12.90
2017,08,09,06,49,12.90
2017,08,09,06,50,12.90
2017,08,09,06,51,12.90
2017,08,09,06,52,12.90
2017,08,09,06,53,12.90
2017,08,09,06,54,12.90
2017,08,09,06,55,12.90
2017,08,09,06,56,12.90
2017,08,09,06,57,13.00
2017,08,09,06,58,13.00
2017,08,09,06,59,13.00
2017,08,09,07,00,13.00
2017,08,09,07,01,13.00
2017,08,09,07,02,13.10
2017,08,09,07,03,13.10
2017,08,09,07,04,13.10
2017,08,09,07,05,13.10
2017,08,09,07,06,13.10
2017,08,09,07,07,13.10
2017,08,09,07,08,13.10
2017,08,09,07,09,13.10
2017,08,09,07,10,13.10
2017,08,09,07,11,13.20
2017,08,09,07,12,13.20
2017,08,09,07,13,13.20
2017,08,09,07,14,13.20
2017,08,09,07,15,13.20
2017,08,09,07,16,13.20
2017,08,09,07,17,13.20
2017,08,09,07,18,13.20
2017,08,09,07,19,13.20
2017,08,09,07,20,13.20
2017,08,09,07,21,13.30
2017,08,09,07,22,13.30
2017,08,09,07,23,13.30
2017,08,09,07,24,13.30
2017,08,09,07,25,13.30
2017,08,09,07,26,13.30
2017,08,09,07,27,13.30
2017,08,09,07,28,13.40
2017,08,09,07,29,13.40
2017,08,09,07,30,13.40
2017,08,09,07,31,13.50
2017,08,09,07,32,13.50
2017,08,09,07,33,13.50
2017,08,09,07,34,13.60
2017,08,09,07,35,13.60
2017,08,09,07,36,13.60
2017,08,09,07,37,13.70
2017,08,09,07,38,13.70
2017,08,09,07,39,13.70
2017,08,09,07,40,13.80
2017,08,09,07,41,13.80
2017,08,09,07,42,13.80
2017,08,09,07,43,13.80
2017,08,09,07,44,13.90
2017,08,09,07,45,13.90
2017,08,09,07,46,13.90
2017,08,09,07,47,14.00
2017,08,09,07,48,14.00
2017,08,09,07,49,14.10
2017,08,09,07,50,14.10
2017,08,09,07,51,14.10
2017,08,09,07,52,14.20
2017,08,09,07,53,14.20
2017,08,09,07,54,14.30
2017,08,09,07,55,14.30
2017,08,09,07,56,14.40
2017,08,09,07,57,14.40
2017,08,09,07,58,14.50
2017,08,09,07,59,14.60
2017,08,09,08,00,14.70
2017,08,09,08,01,14.70
2017,08,09,08,02,14.80
2017,08,09,08,03,14.90
2017,08,09,08,04,15.00
2017,08,09,08,05,15.00
2017,08,09,08,06,15.00
2017,08,09,08,07,15.00
2017,08,09,08,08,15.00
2017,08,09,08,09,15.00
2017,08,09,08,10,15.10
2017,08,09,08,11,15.20
2017,08,09,08,12,15.30
2017,08,09,08,13,15.30
2017,08,09,08,14,15.40
2017,08,09,08,15,15.40
2017,08,09,08,16,15.50
2017,08,09,08,17,15.60
2017,08,09,08,18,15.70
2017,08,09,08,19,15.80
2017,08,09,08,20,15.80
2017,08,09,08,21,15.90
2017,08,09,08,22,15.90
2017,08,09,08,23,16.00
2017,08,09,08,24,16.10
2017,08,09,08,25,16.10
2017,08,09,08,26,16.20
2017,08,09,08,27,16.20
2017,08,09,08,28,16.30
2017,08,09,08,29,16.30
2017,08,09,08,30,16.40
2017,08,09,08,31,16.50
2017,08,09,08,32,16.60
2017,08,09,08,33,16.60
2017,08,09,08,34,16.70
2017,08,09,08,35,16.70
2017,08,09,08,36,16.80
2017,08,09,08,37,16.80
2017,08,09,08,38,16.80
2017,08,09,08,39,17.00
2017,08,09,08,40,17.00
2017,08,09,08,41,17.10
2017,08,09,08,42,17.20
2017,08,09,08,43,17.20
2017,08,09,08,44,17.30
2017,08,09,08,45,17.40
2017,08,09,08,46,17.40
2017,08,09,08,47,17.50
2017,08,09,08,48,17.60
2017,08,09,08,49,17.60
2017,08,09,08,50,17.70
2017,08,09,08,51,17.80
2017,08,09,08,52,17.80
2017,08,09,08,53,17.90
2017,08,09,08,54,18.00
2017,08,09,08,55,18.10
2017,08,09,08,56,18.10
2017,08,09,08,57,18.20
2017,08,09,08,58,18.20
2017,08,09,08,59,18.30
2017,08,09,09,00,18.40
2017,08,09,09,01,18.50
2017,08,09,09,02,18.50
2017,08,09,09,03,18.60
2017,08,09,09,04,18.70
2017,08,09,09,05,18.80
2017,08,09,09,06,18.80
2017,08,09,09,07,18.90
2017,08,09,09,08,18.90
2017,08,09,09,09,19.00
2017,08,09,09,10,19.10
2017,08,09,09,11,19.20
2017,08,09,09,12,19.30
2017,08,09,09,13,19.30
2017,08,09,09,14,19.40
2017,08,09,09,15,19.50
2017,08,09,09,16,19.60
2017,08,09,09,17,19.70
2017,08,09,09,18,19.70
2017,08,09,09,19,19.80
2017,08,09,09,20,19.90
2017,08,09,09,21,20.00
2017,08,09,09,22,20.10
2017,08,09,09,23,20.20
2017,08,09,09,24,20.30
2017,08,09,09,25,20.40
2017,08,09,09,26,20.40
2017,08,09,09,27,20.50
2017,08,09,09,28,20.70
2017,08,09,09,29,20.80
2017,08,09,09,30,20.90
2017,08,09,09,31,21.00
2017,08,09,09,32,21.10
2017,08,09,09,33,21.20
2017,08,09,09,34,21.30
2017,08,09,09,35,21.30
2017,08,09,09,36,21.40
2017,08,09,09,37,21.50
2017,08,09,09,38,21.60
2017,08,09,09,39,21.60
2017,08,09,09,40,21.70
2017,08,09,09,41,21.80
2017,08,09,09,42,21.80
2017,08,09,09,43,21.90
2017,08,09,09,44,22.00
2017,08,09,09,45,22.20
2017,08,09,09,46,22.30
2017,08,09,09,47,22.30
2017,08,09,09,48,22.40
2017,08,09,09,49,22.50
2017,08,09,09,50,22.60
2017,08,09,09,51,22.70
2017,08,09,09,52,22.80
2017,08,09,09,53,22.80
2017,08,09,09,54,22.90
2017,08,09,09,55,23.00
2017,08,09,09,56,23.10
2017,08,09,09,57,23.20
2017,08,09,09,58,23.10
2017,08,09,09,59,23.10
2017,08,09,10,00,23.00
2017,08,09,10,01,23.00
2017,08,09,10,02,23.00
2017,08,09,10,03,23.00
2017,08,09,10,04,23.00
2017,08,09,10,05,23.10
2017,08,09,10,06,23.10
2017,08,09,10,07,23.20
2017,08,09,10,08,23.30
2017,08,09,10,09,23.40
2017,08,09,10,10,23.40
2017,08,09,10,11,23.50
2017,08,09,10,12,23.70
2017,08,09,10,13,23.70
2017,08,09,10,14,23.90
2017,08,09,10,15,24.00
2017,08,09,10,16,24.10
2017,08,09,10,17,24.20
2017,08,09,10,18,24.30
2017,08,09,10,19,24.30
2017,08,09,10,20,24.40
2017,08,09,10,21,24.50
2017,08,09,10,22,24.60
2017,08,09,10,23,24.70
2017,08,09,10,24,24.70
2017,08,09,10,25,24.80
2017,08,09,10,26,24.90
2017,08,09,10,27,25.00
2017,08,09,10,28,25.00
2017,08,09,10,29,25.10
2017,08,09,10,30,25.20
2017,08,09,10,31,25.30
2017,08,09,10,32,25.30
2017,08,09,10,33,25.40
2017,08,09,10,34,25.50
2017,08,09,10,35,25.60
2017,08,09,10,36,25.60
2017,08,09,10,37,25.50
2017,08,09,10,38,25.50
2017,08,09,10,39,25.40
2017,08,09,10,40,25.40
2017,08,09,10,41,25.30
2017,08,09,10,42,25.20
2017,08,09,10,43,25.20
2017,08,09,10,44,25.10
2017,08,09,10,45,25.10
2017,08,09,10,46,25.10
2017,08,09,10,47,25.10
2017,08,09,10,48,25.10
2017,08,09,10,49,25.20
2017,08,09,10,50,25.20
2017,08,09,10,51,25.20
2017,08,09,10,52,25.20
2017,08,09,10,53,25.20
2017,08,09,10,54,25.20
2017,08,09,10,55,25.20
2017,08,09,10,56,25.30
2017,08,09,10,57,25.30
2017,08,09,10,58,25.30
2017,08,09,10,59,25.30
2017,08,09,11,00,25.30
2017,08,09,11,01,25.30
2017,08,09,11,02,25.30
2017,08,09,11,03,25.30
2017,08,09,11,04,25.30
2017,08,09,11,05,25.30
2017,08,09,11,06,25.40
2017,08,09,11,07,25.40
2017,08,09,11,08,25.50
2017,08,09,11,09,25.60
2017,08,09,11,10,25.60
2017,08,09,11,11,25.70
2017,08,09,11,12,25.80
2017,08,09,11,13,25.90
2017,08,09,11,14,25.90
2017,08,09,11,15,26.10
2017,08,09,11,16,26.20
2017,08,09,11,17,26.30
2017,08,09,11,18,26.30
2017,08,09,11,19,26.30
2017,08,09,11,20,26.30
2017,08,09,11,21,26.30
2017,08,09,11,22,26.20
2017,08,09,11,23,26.20
2017,08,09,11,24,26.20
2017,08,09,11,25,26.20
2017,08,09,11,26,26.20
2017,08,09,11,27,26.20
2017,08,09,11,28,26.30
2017,08,09,11,29,26.30
2017,08,09,11,30,26.40
2017,08,09,11,31,26.40
2017,08,09,11,32,26.60
2017,08,09,11,33,26.70
2017,08,09,11,34,26.70
2017,08,09,11,35,26.90
2017,08,09,11,36,27.00
2017,08,09,11,37,27.10
2017,08,09,11,38,27.20
2017,08,09,11,39,27.20
2017,08,09,11,40,27.30
2017,08,09,11,41,27.30
2017,08,09,11,42,27.40
2017,08,09,11,43,27.50
2017,08,09,11,44,27.50
2017,08,09,11,45,27.60
2017,08,09,11,46,27.60
2017,08,09,11,47,27.70
2017,08,09,11,48,27.60
2017,08,09,11,49,27.50
2017,08,09,11,50,27.50
2017,08,09,11,51,27.40
2017,08,09,11,52,27.40
2017,08,09,11,53,27.30
2017,08,09,11,54,27.30
2017,08,09,11,55,27.30
2017,08,09,11,56,27.40
2017,08,09,11,57,27.40
2017,08,09,11,58,27.40
2017,08,09,11,59,27.40
2017,08,09,12,00,27.50
2017,08,09,12,01,27.50
2017,08,09,12,02,27.50
2017,08,09,12,03,27.50
2017,08,09,12,04,27.60
2017,08,09,12,05,27.60
2017,08,09,12,06,27.50
2017,08,09,12,07,27.50
2017,08,09,12,08,27.50
2017,08,09,12,09,27.50
2017,08,09,12,10,27.50
2017,08,09,12,11,27.60
2017,08,09,12,12,27.60
2017,08,09,12,13,27.70
2017,08,09,12,14,27.80
2017,08,09,12,15,27.90
2017,08,09,12,16,27.90
2017,08,09,12,17,28.00
2017,08,09,12,18,28.00
2017,08,09,12,19,28.10
2017,08,09,12,20,28.10
2017,08,09,12,21,28.20
2017,08,09,12,22,28.30
2017,08,09,12,23,28.40
2017,08,09,12,24,28.50
2017,08,09,12,25,28.70
2017,08,09,12,26,28.80
2017,08,09,12,27,28.80
2017,08,09,12,28,28.80
2017,08,09,12,29,28.80
2017,08,09,12,30,28.70
2017,08,09,12,31,28.60
2017,08,09,12,32,28.50
2017,08,09,12,33,28.50
2017,08,09,12,34,28.40
2017,08,09,12,35,28.50
2017,08,09,12,36,28.60
2017,08,09,12,37,28.60
2017,08,09,12,38,28.70
2017,08,09,12,39,28.80
2017,08,09,12,40,28.90
2017,08,09,12,41,29.00
2017,08,09,12,42,29.00
2017,08,09,12,43,29.00
2017,08,09,12,44,29.10
2017,08,09,12,45,29.10
2017,08,09,12,46,29.00
2017,08,09,12,47,29.00
2017,08,09,12,48,29.00
2017,08,09,12,49,29.00
2017,08,09,12,50,29.00
2017,08,09,12,51,29.00
2017,08,09,12,52,29.00
2017,08,09,12,53,29.00
2017,08,09,12,54,29.00
2017,08,09,12,55,29.00
2017,08,09,12,56,29.00
2017,08,09,12,57,29.00
2017,08,09,12,58,29.00
2017,08,09,12,59,29.00
2017,08,09,13,00,29.00
2017,08,09,13,01,29.00
2017,08,09,13,02,29.10
2017,08,09,13,03,29.10
2017,08,09,13,04,29.20
2017,08,09,13,05,29.30
2017,08,09,13,06,29.40
2017,08,09,13,07,29.40
2017,08,09,13,08,29.40
2017,08,09,13,09,29.40
2017,08,09,13,10,29.50
2017,08,09,13,11,29.50
2017,08,09,13,12,29.60
2017,08,09,13,13,29.70
2017,08,09,13,14,29.80
2017,08,09,13,15,29.90
2017,08,09,13,16,30.00
2017,08,09,13,17,30.10
2017,08,09,13,18,30.20
2017,08,09,13,19,30.30
2017,08,09,13,20,30.40
2017,08,09,13,21,30.40
2017,08,09,13,22,30.40
2017,08,09,13,23,30.50
2017,08,09,13,24,30.60
2017,08,09,13,25,30.60
2017,08,09,13,26,30.70
2017,08,09,13,27,30.90
2017,08,09,13,28,31.00
2017,08,09,13,29,31.10
2017,08,09,13,30,31.20
2017,08,09,13,31,31.30
2017,08,09,13,32,31.30
2017,08,09,13,33,31.20
2017,08,09,13,34,31.10
2017,08,09,13,35,31.00
2017,08,09,13,36,30.90
2017,08,09,13,37,30.80
2017,08,09,13,38,30.80
2017,08,09,13,39,30.90
2017,08,09,13,40,30.90
2017,08,09,13,41,30.90
2017,08,09,13,42,30.90
2017,08,09,13,43,30.90
2017,08,09,13,44,30.80
2017,08,09,13,45,30.80
2017,08,09,13,46,30.80
2017,08,09,13,47,30.90
2017,08,09,13,48,31.00
2017,08,09,13,49,31.10
2017,08,09,13,50,31.20
2017,08,09,13,51,31.40
2017,08,09,13,52,31.60
2017,08,09,13,53,31.70
2017,08,09,13,54,31.90
2017,08,09,13,55,32.00
2017,08,09,13,56,32.20
2017,08,09,13,57,32.30
2017,08,09,13,58,32.40
2017,08,09,13,59,32.40
2017,08,09,14,00,32.40
2017,08,09,14,01,32.40
2017,08,09,14,02,32.40
2017,08,09,14,03,32.50
2017,08,09,14,04,32.40
2017,08,09,14,05,32.40
2017,08,09,14,06,32.40
2017,08,09,14,07,32.40
2017,08,09,14,08,32.40
2017,08,09,14,09,32.30
2017,08,09,14,10,32.30
2017,08,09,14,11,32.30
2017,08,09,14,12,32.30
2017,08,09,14,13,32.30
2017,08,09,14,14,32.30
2017,08,09,14,15,32.30
2017,08,09,14,16,32.30
2017,08,09,14,17,32.30
2017,08,09,14,18,32.30
2017,08,09,14,19,32.30
2017,08,09,14,20,32.30
2017,08,09,14,21,32.30
2017,08,09,14,22,32.30
2017,08,09,14,23,32.40
2017,08,09,14,24,32.50
2017,08,09,14,25,32.60
2017,08,09,14,26,32.80
2017,08,09,14,27,32.90
2017,08,09,14,28,32.90
2017,08,09,14,29,32.90
2017,08,09,14,30,32.80
2017,08,09,14,31,32.70
2017,08,09,14,32,32.50
2017,08,09,14,33,32.30
2017,08,09,14,34,32.30
2017,08,09,14,35,32.20
2017,08,09,14,36,32.20
2017,08,09,14,37,32.10
2017,08,09,14,38,32.10
2017,08,09,14,39,32.10
2017,08,09,14,40,32.10
2017,08,09,14,41,32.20
2017,08,09,14,42,32.30
2017,08,09,14,43,32.40
2017,08,09,14,44,32.40
2017,08,09,14,45,32.40
2017,08,09,14,46,32.40
2017,08,09,14,47,32.40
2017,08,09,14,48,32.40
2017,08,09,14,49,32.50
2017,08,09,14,50,32.50
2017,08,09,14,51,32.50
2017,08,09,14,52,32.50
2017,08,09,14,53,32.50
2017,08,09,14,54,32.40
2017,08,09,14,55,32.50
2017,08,09,14,56,32.60
2017,08,09,14,57,32.60
2017,08,09,14,58,32.70
2017,08,09,14,59,32.70
2017,08,09,15,00,32.70
2017,08,09,15,01,32.90
2017,08,09,15,02,32.90
2017,08,09,15,03,33.00
2017,08,09,15,04,33.00
2017,08,09,15,05,33.10
2017,08,09,15,06,33.10
2017,08,09,15,07,33.20
2017,08,09,15,08,33.20
2017,08,09,15,09,33.20
2017,08,09,15,10,33.20
2017,08,09,15,11,33.30
2017,08,09,15,12,33.30
2017,08,09,15,13,33.30
2017,08,09,15,14,33.30
2017,08,09,15,15,33.20
2017,08,09,15,16,33.20
2017,08,09,15,17,33.20
2017,08,09,15,18,33.10
2017,08,09,15,19,33.10
2017,08,09,15,20,33.00
2017,08,09,15,21,33.00
2017,08,09,15,22,33.00
2017,08,09,15,23,33.10
2017,08,09,15,24,33.10
2017,08,09,15,25,33.10
2017,08,09,15,26,33.20
2017,08,09,15,27,33.20
2017,08,09,15,28,33.20
2017,08,09,15,29,33.20
2017,08,09,15,30,33.30
2017,08,09,15,31,33.30
2017,08,09,15,32,33.30
2017,08,09,15,33,33.20
2017,08,09,15,34,33.20
2017,08,09,15,35,33.10
2017,08,09,15,36,33.10
2017,08,09,15,37,33.00
2017,08,09,15,38,32.90
2017,08,09,15,39,32.90
2017,08,09,15,40,32.90
2017,08,09,15,41,32.80
2017,08,09,15,42,32.70
2017,08,09,15,43,32.60
2017,08,09,15,44,32.60
2017,08,09,15,45,32.60
2017,08,09,15,46,32.60
2017,08,09,15,47,32.60
2017,08,09,15,48,32.70
2017,08,09,15,49,32.70
2017,08,09,15,50,32.70
2017,08,09,15,51,32.80
2017,08,09,15,52,32.80
2017,08,09,15,53,32.80
2017,08,09,15,54,32.80
2017,08,09,15,55,32.80
2017,08,09,15,56,32.80
2017,08,09,15,57,32.80
2017,08,09,15,58,32.80
2017,08,09,15,59,32.90
2017,08,09,16,00,32.90
2017,08,09,16,01,32.90
2017,08,09,16,02,32.90
2017,08,09,16,03,32.90
2017,08,09,16,04,32.80
2017,08,09,16,05,32.80
2017,08,09,16,06,32.80
2017,08,09,16,07,32.80
2017,08,09,16,08,32.80
2017,08,09,16,09,32.90
2017,08,09,16,10,32.90
2017,08,09,16,11,32.90
2017,08,09,16,12,32.90
2017,08,09,16,13,33.00
2017,08,09,16,14,33.00
2017,08,09,16,15,33.00
2017,08,09,16,16,33.00
2017,08,09,16,17,33.00
2017,08,09,16,18,33.10
2017,08,09,16,19,33.20
2017,08,09,16,20,33.30
2017,08,09,16,21,33.30
2017,08,09,16,22,33.40
2017,08,09,16,23,33.50
2017,08,09,16,24,33.50
2017,08,09,16,25,33.50
2017,08,09,16,26,33.50
2017,08,09,16,27,33.50
2017,08,09,16,28,33.50
2017,08,09,16,29,33.40
2017,08,09,16,30,33.40
2017,08,09,16,31,33.40
2017,08,09,16,32,33.40
2017,08,09,16,33,33.50
2017,08,09,16,34,33.50
2017,08,09,16,35,33.60
2017,08,09,16,36,33.60
2017,08,09,16,37,33.70
2017,08,09,16,38,33.70
2017,08,09,16,39,33.70
2017,08,09,16,40,33.70
2017,08,09,16,41,33.70
2017,08,09,16,42,33.70
2017,08,09,16,43,33.70
2017,08,09,16,44,33.80
2017,08,09,16,45,33.80
2017,08,09,16,46,33.80
2017,08,09,16,47,33.80
2017,08,09,16,48,33.80
2017,08,09,16,49,33.80
2017,08,09,16,50,33.70
2017,08,09,16,51,33.80
2017,08,09,16,52,33.80
2017,08,09,16,53,33.80
2017,08,09,16,54,33.80
2017,08,09,16,55,33.80
2017,08,09,16,56,33.80
2017,08,09,16,57,33.90
2017,08,09,16,58,34.00
2017,08,09,16,59,34.00
2017,08,09,17,00,34.10
2017,08,09,17,01,34.20
2017,08,09,17,02,34.20
2017,08,09,17,03,34.10
2017,08,09,17,04,34.00
2017,08,09,17,05,33.90
2017,08,09,17,06,33.80
2017,08,09,17,07,33.70
2017,08,09,17,08,33.60
2017,08,09,17,09,33.50
2017,08,09,17,10,33.50
2017,08,09,17,11,33.40
2017,08,09,17,12,33.40
2017,08,09,17,13,33.40
2017,08,09,17,14,33.30
2017,08,09,17,15,33.30
2017,08,09,17,16,33.30
2017,08,09,17,17,33.30
2017,08,09,17,18,33.30
2017,08,09,17,19,33.30